[[{"header":{"parameterUnit":"m.s-1","parameterCategory":1,"la1":30.2991,"la2":30.254,"lo1":-89.0895,"lo2":-89.0444,"dx":0.0017,"dy":0.0017,"nx":28,"ny":28,"refTime":"2022-11-21T15:00:00:Z","depth":0,"parameterNumber":2,"parameterNumberName":"U-component_of_WINDS"},"data":[0,0,0,0,0,0,0,0,0,0,0,0,0,0,0,0,0,0,0,0,0,0,0,0,0,0,0,0,0,0,0,0,0,0,0,0,0,0,0,0,0,0,0,0,0,0,0,0,0,0,0,0,0,0,0,0,0,0,-1.9787,-1.9787,0,-1.9815,-1.9815,-1.9815,-1.9759,-1.9757,-1.9755,-1.9753,-1.9784,-1.9786,-1.9789,0,0,0,0,0,0,0,0,0,0,0,0,0,-1.9687,-1.9689,-1.9787,-1.9788,-1.9788,-1.9815,-1.9815,-1.9816,-1.9759,-1.9757,-1.9754,-1.9752,-1.9783,-1.9786,-1.9789,0,0,0,0,0,0,0,0,0,0,0,0,0,-1.9725,-1.969,-1.9787,-1.9763,-1.9761,-1.9815,-1.9815,-1.9816,-1.9759,-1.9756,-1.9754,-1.9751,-1.9782,-1.9786,-1.979,-1.9869,0,0,-1.9801,-1.9803,0,0,0,0,0,0,0,0,-1.9722,-1.9728,-1.9766,-1.9764,-1.9762,-1.978,-1.9791,-1.9834,-1.976,-1.976,-1.9753,-1.975,-1.9785,-1.9789,-1.98,-1.9871,-1.9872,-1.9802,-1.9804,-1.9806,-1.9807,0,0,0,0,0,0,0,-1.972,-1.9727,-1.9798,-1.9767,-1.9764,-1.9751,-1.9753,-1.9799,-1.9788,-1.976,-1.9756,-1.976,-1.9784,-1.9796,-1.98,-1.9873,-1.9802,-1.9805,-1.9807,-1.9809,-2.0011,-2.0014,0,0,0,0,0,0,-1.972,-1.9725,-1.9797,-1.9799,-1.9735,-1.9755,-1.9758,-1.9777,-1.9787,-1.9786,-1.9762,-1.9757,-1.9791,-1.9796,-1.9801,-1.9896,-1.9806,-1.9809,-1.9811,-2.0008,-2.0012,-2.0015,0,0,0,0,0,0,-1.9718,-1.9727,-1.9796,-1.9761,-1.9769,-1.976,-1.9783,-1.9779,-1.9792,-1.9789,-1.9787,-1.9777,-1.9789,-1.9796,-1.9853,-1.9897,-1.9811,-1.9814,-2.0005,-2.0009,-2.0014,-2.0087,0,0,0,0,0,0,-1.9716,-1.9727,-1.9757,-1.9762,-1.9771,-1.9847,-1.9785,-1.9782,-1.9799,-1.9792,-1.9802,-1.9802,-1.9788,-1.9847,-1.9857,-1.99,-1.9817,-2.0001,-2.0007,-2.0012,-2.0081,-2.0094,-2.0105,0,0,0,0,0,-1.9712,-1.9776,-1.9758,-1.9767,-1.9808,-1.985,-1.9855,-1.9837,-1.9802,-1.9833,-1.9831,-1.9801,-1.989,-1.9854,-1.9864,-1.9909,-1.9998,-2.0005,-2.0012,-2.0075,-2.0091,-2.0104,0,0,0,0,0,0,-1.9777,-1.9777,-1.9757,-1.9824,-1.9837,-1.984,-1.9878,-1.9854,-1.9877,-1.9871,-1.9848,-1.985,-1.9913,-1.9916,-1.9876,-1.9987,-1.9938,-1.9947,-1.9983,-1.9998,-2.001,-2.0009,-1.9821,0,0,0,0,0,-1.9799,-1.9833,-1.983,-1.9891,-1.9898,-1.9887,-1.9904,-1.9889,-1.9902,-1.9908,-1.991,-1.9924,-1.9955,-1.9976,-2.0005,-2.008,-2.0082,-2.0116,-2.0128,-2.0138,-2.0147,-2.0189,-2.0204,-2.0038,-2.0038,-2.0038,0,0,-1.9846,-1.9849,-1.9872,-1.9904,-1.9912,-1.9948,-1.9892,-1.9932,-1.9959,-1.9914,-1.9969,-1.997,-1.9985,-2.0052,-2.0082,-2.0057,-2.0193,-2.0147,-2.0155,-2.0159,-2.0197,-2.0213,-2.0227,-2.0043,-2.0042,-2.0041,0,0,-1.9949,-1.9954,-2.0006,-2.0015,-2.0028,-2.002,-2.0032,-2.0038,-2.0038,-2.0092,-2.0059,-2.0091,-2.0144,-2.0156,-2.017,-2.0277,-2.0252,-2.0287,-2.035,-2.0391,-2.0404,-2.0416,-2.0456,-2.0471,-2.0295,-2.0296,-2.0296,0,-2.0006,-2.0058,-2.0035,-2.0078,-2.0094,-2.0053,-2.0106,-2.0116,-2.0138,-2.015,-2.0121,-2.0188,-2.0195,-2.0265,-2.0292,-2.0303,-2.0317,-2.0287,-2.0404,-2.0415,-2.0426,-2.0464,-2.0479,-2.03,-2.0299,-2.0299,-2.0299,0,-2.0128,-2.0165,-2.0204,-2.0226,-2.0246,-2.0293,-2.0279,-2.0301,-2.0284,-2.0279,-2.0335,-2.0342,-2.0371,-2.0386,-2.037,-2.0454,-2.0439,-2.0408,-2.0358,-2.0447,-2.0482,-2.0497,-2.0306,-2.0305,-2.0303,-2.0302,0,0,-2.0275,-2.0283,-2.0298,-2.0308,-2.0319,-2.0348,-2.0393,-2.0421,-2.0442,-2.0458,-2.0497,-2.0543,-2.0515,-2.053,-2.0514,-2.055,-2.0637,-2.0514,-2.0514,-2.0539,-2.0732,-2.0758,-2.0775,-2.0619,-2.0621,-2.0623,-2.0732,0,-2.0379,-2.0458,-2.0438,-2.0517,-2.0551,-2.0513,-2.0553,-2.0564,-2.0561,-2.059,-2.0586,-2.062,-2.0579,-2.0588,-2.0621,-2.0619,-2.0676,-2.0611,-2.0657,-2.0659,-2.0657,-2.0793,-2.082,-2.0922,-2.0745,-2.0748,-2.0749,0,-2.0512,-2.0533,-2.0614,-2.062,-2.0634,-2.067,-2.0695,-2.0723,-2.0735,-2.073,-2.0747,-2.0725,-2.0771,-2.0719,-2.0784,-2.074,-2.0757,-2.0759,-2.0763,-2.0768,-2.0711,-2.0805,-2.0954,-2.097,-2.0771,-2.0769,-2.0767,0,-2.0614,-2.0662,-2.0717,-2.0727,-2.0734,-2.0761,-2.0766,-2.0775,-2.0794,-2.0815,-2.0827,-2.0853,-2.0869,-2.089,-2.0876,-2.0839,-2.0944,-2.089,-2.0943,-2.0943,-2.0969,-2.0968,-2.1125,-2.0976,-2.0975,-2.0975,-2.0975,0,-2.0734,-2.0786,-2.0764,-2.0798,-2.0855,-2.0832,-2.089,-2.089,-2.0899,-2.0934,-2.0901,-2.0934,-2.0912,-2.0944,-2.0933,-2.0989,-2.0995,-2.0994,-2.0991,-2.0999,-2.0999,-2.1012,-2.1005,-2.0979,-2.0978,-2.0977,-2.0977,0,-2.0859,-2.0845,-2.0904,-2.0906,-2.0907,-2.095,-2.0952,-2.0985,-2.0978,-2.1022,-2.1031,-2.1022,-2.1057,-2.1044,-2.1082,-2.1075,-2.1147,-2.1134,-2.1143,-2.1141,-2.1195,-2.1191,-2.1368,-2.1391,-2.1224,-2.1226,-2.1227,0,-2.0937,-2.0976,-2.0982,-2.1003,-2.101,-2.1043,-2.1061,-2.104,-2.106,-2.1078,-2.1109,-2.1141,-2.1166,-2.1225,-2.1222,-2.1251,-2.124,-2.1299,-2.1244,-2.1251,-2.1244,-2.1243,-2.1247,-2.1312,-2.1314,-2.1315,-2.1316,0,-2.1079,-2.1071,-2.1098,-2.1123,-2.1146,-2.1165,-2.1181,-2.12,-2.118,-2.1205,-2.124,-2.126,-2.1298,-2.1332,-2.1358,-2.1363,-2.1338,-2.1333,-2.1348,-2.1357,-2.1362,-2.1363,-2.1176,-2.133,-2.1329,-2.1328,-2.1327,-2.1327,-2.1185,-2.1219,-2.1228,-2.126,-2.127,-2.1286,-2.1317,-2.1314,-2.1343,-2.1372,-2.1357,-2.1399,-2.1411,-2.1443,-2.1452,-2.1486,-2.1463,-2.1482,-2.1488,-2.1494,-2.1502,-2.1354,-2.149,-2.1489,-2.1489,-2.1489,-2.1488,0,-2.1327,-2.1331,-2.1361,-2.1384,-2.141,-2.1381,-2.1397,-2.1421,-2.1458,-2.1471,-2.1496,-2.1537,-2.1569,-2.1568,-2.1598,-2.1625,-2.1614,-2.1634,-2.1634,-2.1636,-2.152,-2.1506,-2.1643,-2.1643,-2.1643,-2.1643,-2.1643,-2.1643,-2.1405,-2.146,-2.1453,-2.1513,-2.1517,-2.1557,-2.1569,-2.1584,-2.1594,-2.1642,-2.1668,-2.1667,-2.1675,-2.1705,-2.1734,-2.1732,-2.1746,-2.1771,-2.1766,-2.1659,-2.1643,-2.1629,-2.1616,-2.1774,-2.1774,-2.1879,-2.188,-2.1881]},{"header":{"parameterUnit":"m.s-1","parameterCategory":1,"la1":30.2991,"la2":30.254,"lo1":-89.0895,"lo2":-89.0444,"dx":0.0017,"dy":0.0017,"nx":28,"ny":28,"refTime":"2022-11-21T15:00:00:Z","depth":0,"parameterNumber":3,"parameterNumberName":"V-component_of_WINDS"},"data":[0,0,0,0,0,0,0,0,0,0,0,0,0,0,0,0,0,0,0,0,0,0,0,0,0,0,0,0,0,0,0,0,0,0,0,0,0,0,0,0,0,0,0,0,0,0,0,0,0,0,0,0,0,0,0,0,0,0,-3.4238,-3.4238,0,-3.4251,-3.4251,-3.4251,-3.4209,-3.4207,-3.4206,-3.4205,-3.4216,-3.4217,-3.4219,0,0,0,0,0,0,0,0,0,0,0,0,0,-3.4175,-3.4176,-3.4238,-3.4238,-3.4238,-3.4251,-3.4251,-3.4251,-3.4209,-3.4207,-3.4206,-3.4204,-3.4215,-3.4217,-3.4219,0,0,0,0,0,0,0,0,0,0,0,0,0,-3.4196,-3.4177,-3.4238,-3.4219,-3.4217,-3.4251,-3.4251,-3.4251,-3.4209,-3.4207,-3.4205,-3.4204,-3.4215,-3.4217,-3.4219,-3.4271,0,0,-3.4226,-3.4227,0,0,0,0,0,0,0,0,-3.4195,-3.4199,-3.4222,-3.422,-3.4219,-3.4226,-3.4233,-3.4258,-3.421,-3.4212,-3.4205,-3.4203,-3.4221,-3.4222,-3.4229,-3.4271,-3.4272,-3.4226,-3.4227,-3.4228,-3.4229,0,0,0,0,0,0,0,-3.4194,-3.4198,-3.4243,-3.4222,-3.422,-3.4209,-3.421,-3.4237,-3.4227,-3.4212,-3.4209,-3.4211,-3.4219,-3.4227,-3.4229,-3.4272,-3.4226,-3.4228,-3.4229,-3.423,-3.4359,-3.4361,0,0,0,0,0,0,-3.4195,-3.4197,-3.4243,-3.4243,-3.4202,-3.4212,-3.4213,-3.4226,-3.4227,-3.4225,-3.4213,-3.4209,-3.4224,-3.4226,-3.4229,-3.4291,-3.4228,-3.423,-3.4232,-3.4357,-3.4359,-3.4361,0,0,0,0,0,0,-3.4194,-3.42,-3.4242,-3.4219,-3.4224,-3.4215,-3.423,-3.4227,-3.4234,-3.4227,-3.4225,-3.4222,-3.4223,-3.4226,-3.4261,-3.429,-3.4231,-3.4233,-3.4354,-3.4357,-3.436,-3.4414,0,0,0,0,0,0,-3.4192,-3.4199,-3.422,-3.422,-3.4225,-3.4275,-3.4231,-3.4229,-3.4238,-3.4234,-3.4236,-3.4234,-3.4221,-3.4258,-3.4263,-3.4292,-3.4235,-3.4352,-3.4356,-3.4359,-3.441,-3.4419,-3.4426,0,0,0,0,0,-3.419,-3.4233,-3.4221,-3.4227,-3.425,-3.4277,-3.428,-3.4265,-3.4241,-3.4261,-3.4256,-3.4234,-3.4286,-3.4262,-3.4268,-3.4298,-3.435,-3.4354,-3.4359,-3.4406,-3.4417,-3.4426,0,0,0,0,0,0,-3.4235,-3.4233,-3.4219,-3.4264,-3.4271,-3.427,-3.4294,-3.4277,-3.429,-3.4285,-3.4265,-3.4266,-3.4305,-3.4304,-3.4278,-3.4348,-3.4314,-3.432,-3.4348,-3.4358,-3.4366,-3.4366,-3.4237,0,0,0,0,0,-3.4251,-3.4273,-3.4269,-3.4309,-3.4314,-3.4304,-3.4314,-3.4302,-3.4309,-3.4311,-3.4309,-3.4315,-3.4333,-3.4345,-3.4361,-3.4409,-3.4409,-3.4433,-3.4441,-3.4448,-3.4454,-3.448,-3.449,-3.4377,-3.4377,-3.4377,0,0,-3.4282,-3.4284,-3.4299,-3.4319,-3.4323,-3.4346,-3.4306,-3.4332,-3.4349,-3.4315,-3.4349,-3.4347,-3.4353,-3.4395,-3.4413,-3.4396,-3.4485,-3.4454,-3.4459,-3.4461,-3.4486,-3.4496,-3.4506,-3.438,-3.438,-3.4379,0,0,-3.4352,-3.4355,-3.439,-3.4395,-3.4402,-3.4395,-3.4403,-3.4404,-3.4403,-3.4436,-3.4412,-3.4431,-3.4462,-3.4467,-3.4474,-3.4546,-3.4526,-3.4552,-3.4596,-3.4622,-3.4631,-3.4638,-3.4665,-3.4675,-3.4557,-3.4557,-3.4558,0,-3.439,-3.4425,-3.4409,-3.4437,-3.4447,-3.4418,-3.4452,-3.4457,-3.4469,-3.4476,-3.4456,-3.4495,-3.4497,-3.454,-3.4558,-3.4564,-3.4573,-3.4552,-3.4631,-3.4638,-3.4645,-3.4671,-3.4681,-3.4561,-3.456,-3.456,-3.456,0,-3.4472,-3.4497,-3.4523,-3.4537,-3.4549,-3.458,-3.4568,-3.4582,-3.4569,-3.4565,-3.4599,-3.46,-3.4617,-3.4626,-3.4613,-3.4668,-3.4657,-3.4634,-3.4599,-3.466,-3.4683,-3.4693,-3.4565,-3.4564,-3.4563,-3.4562,0,0,-3.4571,-3.4576,-3.4586,-3.4592,-3.4598,-3.4616,-3.4646,-3.4663,-3.4676,-3.4684,-3.4709,-3.4736,-3.4716,-3.4723,-3.471,-3.4733,-3.4792,-3.4708,-3.4707,-3.4724,-3.4853,-3.4871,-3.4883,-3.4778,-3.478,-3.4781,-3.4853,0,-3.4641,-3.4693,-3.468,-3.4731,-3.4754,-3.4727,-3.4753,-3.4759,-3.4755,-3.4773,-3.4768,-3.4788,-3.4759,-3.4764,-3.4785,-3.478,-3.4818,-3.4775,-3.4801,-3.4802,-3.4802,-3.4895,-3.4914,-3.4982,-3.4862,-3.4864,-3.4865,0,-3.4729,-3.4743,-3.4798,-3.4801,-3.481,-3.4833,-3.4848,-3.4866,-3.4872,-3.4867,-3.4877,-3.4859,-3.4888,-3.4852,-3.4892,-3.4863,-3.4873,-3.4873,-3.4875,-3.4877,-3.4838,-3.4901,-3.5003,-3.5014,-3.4879,-3.4878,-3.4877,0,-3.4798,-3.483,-3.4867,-3.4872,-3.4877,-3.4894,-3.4896,-3.4901,-3.4912,-3.4924,-3.4931,-3.4946,-3.4955,-3.4967,-3.4954,-3.4929,-3.4996,-3.4959,-3.4994,-3.4994,-3.501,-3.5009,-3.5116,-3.5014,-3.5014,-3.5014,-3.5014,0,-3.4878,-3.4912,-3.4898,-3.4921,-3.4958,-3.4942,-3.498,-3.4979,-3.4983,-3.5005,-3.4981,-3.5002,-3.4984,-3.5003,-3.4993,-3.5028,-3.5031,-3.5029,-3.5026,-3.5032,-3.5032,-3.5038,-3.5034,-3.5017,-3.5016,-3.5016,-3.5015,0,-3.4961,-3.4952,-3.4991,-3.4992,-3.4993,-3.5021,-3.5022,-3.5043,-3.5037,-3.5065,-3.507,-3.5062,-3.5083,-3.5071,-3.5093,-3.5086,-3.5132,-3.5122,-3.513,-3.5128,-3.5164,-3.5161,-3.5279,-3.5294,-3.5182,-3.5183,-3.5184,0,-3.5013,-3.5039,-3.5044,-3.5057,-3.5062,-3.5083,-3.5095,-3.508,-3.5093,-3.5102,-3.5122,-3.5142,-3.5157,-3.5192,-3.5187,-3.5203,-3.5194,-3.5234,-3.5196,-3.5202,-3.5196,-3.5195,-3.5198,-3.5242,-3.5244,-3.5245,-3.5245,0,-3.5107,-3.5102,-3.512,-3.5137,-3.5152,-3.5165,-3.5175,-3.5187,-3.5172,-3.5188,-3.521,-3.5222,-3.5244,-3.5264,-3.5278,-3.528,-3.5261,-3.5257,-3.5266,-3.5273,-3.5277,-3.5277,-3.5152,-3.5255,-3.5254,-3.5253,-3.5253,-3.5252,-3.5177,-3.5199,-3.5207,-3.5228,-3.5234,-3.5245,-3.5265,-3.5262,-3.5281,-3.5299,-3.5288,-3.5314,-3.532,-3.5337,-3.5341,-3.5361,-3.5345,-3.5358,-3.5361,-3.5365,-3.5371,-3.5273,-3.5364,-3.5363,-3.5363,-3.5363,-3.5363,0,-3.5271,-3.5274,-3.5294,-3.531,-3.5327,-3.5308,-3.5318,-3.5333,-3.5357,-3.5364,-3.538,-3.5406,-3.5425,-3.5422,-3.5439,-3.5455,-3.5447,-3.5461,-3.546,-3.5461,-3.5383,-3.5375,-3.5467,-3.5467,-3.5467,-3.5467,-3.5467,-3.5467,-3.5322,-3.5359,-3.5355,-3.5395,-3.5398,-3.5424,-3.5432,-3.5441,-3.5447,-3.5478,-3.5494,-3.5492,-3.5495,-3.5512,-3.5529,-3.5528,-3.5535,-3.5553,-3.5548,-3.5476,-3.5466,-3.5456,-3.5448,-3.5554,-3.5554,-3.5624,-3.5624,-3.5625]}]]